Time,TemperatureF,DewpointF,PressureIn,WindDirection,WindDirectionDegrees,WindSpeedMPH,WindSpeedGustMPH,Humidity,HourlyPrecipIn,Conditions,Clouds,dailyrainin,SoftwareType,DateUTC
2013-09-01 00:15:00,67.8,66.9,29.80,SW,217,5.0,10.0,97,0.00,,---,0.00,VWS V12.07,2013-09-01 04:15:00,
2013-09-01 00:25:00,67.8,66.9,29.80,SW,227,8.0,10.0,97,0.00,,---,0.00,VWS V12.07,2013-09-01 04:25:00,
2013-09-01 00:33:00,67.9,67.0,29.80,WSW,250,5.0,8.0,97,0.00,,---,0.00,VWS V12.07,2013-09-01 04:33:00,
2013-09-01 00:45:00,68.0,66.8,29.80,WSW,240,7.0,9.0,96,0.00,,---,0.00,VWS V12.07,2013-09-01 04:45:00,
2013-09-01 00:55:00,67.7,66.8,29.80,SSW,208,3.0,6.0,97,0.00,,---,0.00,VWS V12.07,2013-09-01 04:55:00,
2013-09-01 01:05:00,67.5,66.6,29.79,SSW,199,5.0,6.0,97,0.00,,---,0.00,VWS V12.07,2013-09-01 05:05:00,
2013-09-01 01:15:00,67.2,66.3,29.78,SSW,204,6.0,8.0,97,0.00,,---,0.00,VWS V12.07,2013-09-01 05:15:00,
2013-09-01 01:25:00,67.2,66.6,29.78,SW,215,4.0,7.0,98,0.00,,---,0.00,VWS V12.07,2013-09-01 05:25:00,
2013-09-01 01:35:00,67.0,66.4,29.78,SW,221,3.0,5.0,98,0.00,,---,0.00,VWS V12.07,2013-09-01 05:35:00,
2013-09-01 01:45:00,67.1,66.5,29.78,SW,214,6.0,7.0,98,0.00,,---,0.00,VWS V12.07,2013-09-01 05:45:00,
2013-09-01 01:56:00,67.0,66.4,29.78,SSW,196,6.0,8.0,98,0.00,,---,0.00,VWS V12.07,2013-09-01 05:56:00,
2013-09-01 02:06:00,67.0,66.4,29.80,SW,234,7.0,8.0,98,0.00,,---,0.00,VWS V12.07,2013-09-01 06:06:00,
2013-09-01 02:16:00,66.9,66.3,29.80,SW,227,5.0,6.0,98,0.00,,---,0.00,VWS V12.07,2013-09-01 06:16:00,
2013-09-01 02:26:00,66.9,66.3,29.80,WSW,240,5.0,6.0,98,0.00,,---,0.00,VWS V12.07,2013-09-01 06:26:00,
2013-09-01 02:36:00,67.0,66.4,29.80,SW,223,6.0,7.0,98,0.00,,---,0.00,VWS V12.07,2013-09-01 06:36:00,
2013-09-01 02:45:00,67.0,66.4,29.80,SW,223,6.0,8.0,98,0.00,,---,0.00,VWS V12.07,2013-09-01 06:45:00,
2013-09-01 02:55:00,66.9,66.6,29.80,SW,217,6.0,10.0,99,0.00,,---,0.00,VWS V12.07,2013-09-01 06:55:00,
2013-09-01 03:05:00,67.0,66.7,29.80,SSW,209,8.0,12.0,99,0.00,,---,0.00,VWS V12.07,2013-09-01 07:05:00,
2013-09-01 03:15:00,67.3,67.0,29.80,SSW,210,11.0,14.0,99,0.00,,---,0.00,VWS V12.07,2013-09-01 07:15:00,
2013-09-01 03:20:00,67.4,67.1,29.80,SSW,198,9.0,15.0,99,0.00,,---,0.00,VWS V12.07,2013-09-01 07:20:00,
2013-09-01 03:26:00,67.7,67.4,29.80,SW,221,8.0,15.0,99,0.00,,---,0.00,VWS V12.07,2013-09-01 07:26:00,
2013-09-01 03:36:00,68.0,67.7,29.80,SSW,200,7.0,12.0,99,0.00,,---,0.00,VWS V12.07,2013-09-01 07:36:00,
2013-09-01 03:46:00,67.8,67.5,29.80,SSW,196,9.0,12.0,99,0.00,,---,0.00,VWS V12.07,2013-09-01 07:46:00,
2013-09-01 03:56:00,67.5,67.2,29.80,SSW,207,10.0,12.0,99,0.00,,---,0.00,VWS V12.07,2013-09-01 07:56:00,
2013-09-01 04:06:00,67.1,66.5,29.80,SW,221,10.0,12.0,98,0.00,,---,0.00,VWS V12.07,2013-09-01 08:06:00,
2013-09-01 04:16:00,66.8,65.9,29.80,WSW,242,5.0,10.0,97,0.00,,---,0.00,VWS V12.07,2013-09-01 08:16:00,
2013-09-01 04:26:00,66.7,65.8,29.80,SW,232,8.0,11.0,97,0.00,,---,0.00,VWS V12.07,2013-09-01 08:26:00,
2013-09-01 04:36:00,66.4,65.8,29.79,SSW,198,6.0,7.0,98,0.00,,---,0.00,VWS V12.07,2013-09-01 08:36:00,
2013-09-01 04:46:00,65.9,65.3,29.79,South,187,5.0,7.0,98,0.00,,---,0.00,VWS V12.07,2013-09-01 08:46:00,
2013-09-01 04:56:00,65.9,65.3,29.79,SW,215,5.0,7.0,98,0.00,,---,0.00,VWS V12.07,2013-09-01 08:56:00,
2013-09-01 05:06:00,65.8,65.2,29.80,SSW,213,4.0,6.0,98,0.00,,---,0.00,VWS V12.07,2013-09-01 09:06:00,
2013-09-01 05:16:00,65.4,64.8,29.80,SSW,205,3.0,3.0,98,0.00,,---,0.00,VWS V12.07,2013-09-01 09:16:00,
2013-09-01 05:26:00,65.3,64.7,29.80,SSW,194,2.0,4.0,98,0.00,,---,0.00,VWS V12.07,2013-09-01 09:26:00,
2013-09-01 05:36:00,65.3,64.7,29.80,SSW,194,2.0,3.0,98,0.00,,---,0.00,VWS V12.07,2013-09-01 09:36:00,
2013-09-01 05:46:00,65.3,64.7,29.80,SSW,194,1.0,2.0,98,0.00,,---,0.00,VWS V12.07,2013-09-01 09:46:00,
2013-09-01 05:56:00,65.6,65.3,29.80,SSE,155,1.0,2.0,99,0.00,,---,0.00,VWS V12.07,2013-09-01 09:56:00,
2013-09-01 06:06:00,65.6,65.3,29.81,SSE,155,1.0,2.0,99,0.00,,---,0.00,VWS V12.07,2013-09-01 10:06:00,
2013-09-01 06:16:00,65.6,65.3,29.82,SW,232,4.0,4.0,99,0.00,,---,0.00,VWS V12.07,2013-09-01 10:16:00,
2013-09-01 06:25:00,65.6,65.3,29.82,SW,222,4.0,5.0,99,0.00,,---,0.00,VWS V12.07,2013-09-01 10:25:00,
2013-09-01 06:35:00,65.7,65.4,29.83,SW,229,4.0,6.0,99,0.00,,---,0.00,VWS V12.07,2013-09-01 10:35:00,
2013-09-01 06:45:00,65.8,65.5,29.83,SW,229,4.0,6.0,99,0.00,,---,0.00,VWS V12.07,2013-09-01 10:45:00,
2013-09-01 06:55:00,65.8,65.5,29.83,WSW,248,4.0,5.0,99,0.00,,---,0.00,VWS V12.07,2013-09-01 10:55:00,
2013-09-01 07:05:00,65.7,65.4,29.83,West,259,3.0,4.0,99,0.00,,---,0.00,VWS V12.07,2013-09-01 11:05:00,
2013-09-01 07:15:00,65.8,65.5,29.83,West,274,1.0,4.0,99,0.00,,---,0.00,VWS V12.07,2013-09-01 11:15:00,
2013-09-01 07:25:00,66.2,65.9,29.83,West,274,1.0,1.0,99,0.00,,---,0.00,VWS V12.07,2013-09-01 11:25:00,
2013-09-01 07:35:00,66.5,66.2,29.83,SSW,209,2.0,3.0,99,0.00,,---,0.00,VWS V12.07,2013-09-01 11:35:00,
2013-09-01 07:45:00,66.1,65.8,29.84,SSW,206,2.0,4.0,99,0.00,,---,0.00,VWS V12.07,2013-09-01 11:45:00,
2013-09-01 07:55:00,66.4,66.1,29.84,SSW,205,3.0,4.0,99,0.00,,---,0.00,VWS V12.07,2013-09-01 11:55:00,
2013-09-01 08:05:00,66.2,65.9,29.84,South,179,2.0,4.0,99,0.00,,---,0.00,VWS V12.07,2013-09-01 12:05:00,
2013-09-01 08:13:00,66.5,66.2,29.84,SW,215,2.0,4.0,99,0.00,,---,0.00,VWS V12.07,2013-09-01 12:13:00,
2013-09-01 08:26:00,66.6,66.3,29.84,West,268,1.0,4.0,99,0.00,,---,0.00,VWS V12.07,2013-09-01 12:26:00,
2013-09-01 08:36:00,66.7,66.4,29.84,West,268,1.0,2.0,99,0.00,,---,0.00,VWS V12.07,2013-09-01 12:36:00,
2013-09-01 08:46:00,67.4,67.1,29.84,NE,52,1.0,3.0,99,0.00,,---,0.00,VWS V12.07,2013-09-01 12:46:00,
2013-09-01 08:56:00,67.3,67.0,29.84,NNE,18,2.0,4.0,99,0.00,,---,0.00,VWS V12.07,2013-09-01 12:56:00,
2013-09-01 09:02:00,67.2,66.9,29.84,North,9,2.0,4.0,99,0.00,,---,0.00,VWS V12.07,2013-09-01 13:02:00,
2013-09-01 09:16:00,67.5,67.5,29.84,North,9,1.0,2.0,100,0.00,,---,0.00,VWS V12.07,2013-09-01 13:16:00,
2013-09-01 09:27:00,68.6,68.3,29.84,NNE,22,2.0,2.0,99,0.00,,---,0.00,VWS V12.07,2013-09-01 13:27:00,
2013-09-01 09:35:00,70.1,69.8,29.84,East,90,2.0,3.0,99,0.00,,---,0.00,VWS V12.07,2013-09-01 13:35:00,
2013-09-01 09:45:00,70.8,68.7,29.84,NE,44,2.0,3.0,93,0.00,,---,0.00,VWS V12.07,2013-09-01 13:45:00,
2013-09-01 09:55:00,71.1,68.0,29.84,ENE,65,1.0,2.0,90,0.00,,---,0.00,VWS V12.07,2013-09-01 13:55:00,
2013-09-01 10:05:00,71.6,69.2,29.84,SW,225,2.0,4.0,92,0.00,,---,0.00,VWS V12.07,2013-09-01 14:05:00,
2013-09-01 10:15:00,72.0,69.6,29.84,SE,138,0.0,4.0,92,0.00,,---,0.00,VWS V12.07,2013-09-01 14:15:00,
2013-09-01 10:25:00,72.7,68.3,29.84,NNW,342,1.0,4.0,86,0.00,,---,0.00,VWS V12.07,2013-09-01 14:25:00,
2013-09-01 10:35:00,73.2,68.4,29.85,NNE,32,3.0,3.0,85,0.00,,---,0.00,VWS V12.07,2013-09-01 14:35:00,
2013-09-01 10:46:00,73.6,69.8,29.85,South,169,1.0,3.0,88,0.00,,---,0.00,VWS V12.07,2013-09-01 14:46:00,
2013-09-01 10:56:00,74.3,70.2,29.85,NE,51,2.0,3.0,87,0.00,,---,0.00,VWS V12.07,2013-09-01 14:56:00,
2013-09-01 11:06:00,74.5,70.0,29.85,SSW,213,2.0,4.0,86,0.00,,---,0.00,VWS V12.07,2013-09-01 15:06:00,
2013-09-01 11:16:00,74.1,70.0,29.85,SSE,162,3.0,3.0,87,0.00,,---,0.00,VWS V12.07,2013-09-01 15:16:00,
2013-09-01 11:26:00,75.3,71.2,29.85,SSW,212,4.0,5.0,87,0.00,,---,0.00,VWS V12.07,2013-09-01 15:26:00,
2013-09-01 11:36:00,74.6,69.8,29.85,West,279,2.0,6.0,85,0.00,,---,0.00,VWS V12.07,2013-09-01 15:36:00,
2013-09-01 11:46:00,74.4,69.6,29.85,SSW,206,5.0,7.0,85,0.00,,---,0.00,VWS V12.07,2013-09-01 15:46:00,
2013-09-01 11:56:00,74.8,69.7,29.85,SSW,195,4.0,7.0,84,0.00,,---,0.00,VWS V12.07,2013-09-01 15:56:00,
2013-09-01 12:06:00,74.9,70.8,29.84,SW,224,4.0,6.0,87,0.00,,---,0.00,VWS V12.07,2013-09-01 16:06:00,
2013-09-01 12:16:00,75.6,71.1,29.84,WSW,241,6.0,6.0,86,0.00,,---,0.00,VWS V12.07,2013-09-01 16:16:00,
2013-09-01 12:26:00,75.6,71.5,29.84,WNW,288,3.0,8.0,87,0.00,,---,0.00,VWS V12.07,2013-09-01 16:26:00,
2013-09-01 12:36:00,75.8,69.9,29.83,SW,230,3.0,8.0,82,0.00,,---,0.00,VWS V12.07,2013-09-01 16:36:00,
2013-09-01 12:46:00,76.0,69.8,29.83,SSW,205,3.0,5.0,81,0.00,,---,0.00,VWS V12.07,2013-09-01 16:46:00,
2013-09-01 12:56:00,75.7,69.8,29.83,WSW,243,1.0,6.0,82,0.00,,---,0.00,VWS V12.07,2013-09-01 16:56:00,
2013-09-01 13:06:00,76.8,69.4,29.83,South,178,1.0,7.0,78,0.00,,---,0.00,VWS V12.07,2013-09-01 17:06:00,
2013-09-01 13:16:00,76.6,70.0,29.83,SSW,198,3.0,4.0,80,0.00,,---,0.00,VWS V12.07,2013-09-01 17:16:00,
2013-09-01 13:26:00,76.3,69.7,29.83,WSW,244,0.0,6.0,80,0.00,,---,0.00,VWS V12.07,2013-09-01 17:26:00,
2013-09-01 13:36:00,76.9,69.9,29.82,South,188,4.0,5.0,79,0.00,,---,0.00,VWS V12.07,2013-09-01 17:36:00,
2013-09-01 13:46:00,78.4,71.3,29.82,South,189,4.0,6.0,79,0.00,,---,0.00,VWS V12.07,2013-09-01 17:46:00,
2013-09-01 13:56:00,78.3,69.3,29.82,SW,217,5.0,9.0,74,0.00,,---,0.00,VWS V12.07,2013-09-01 17:56:00,
2013-09-01 14:15:00,77.3,69.2,29.82,SSW,204,6.0,7.0,76,0.00,,---,0.00,VWS V12.07,2013-09-01 18:15:00,
2013-09-01 14:25:00,77.6,69.8,29.82,SSW,192,7.0,7.0,77,0.00,,---,0.00,VWS V12.07,2013-09-01 18:25:00,
2013-09-01 14:35:00,78.8,69.8,29.82,South,178,7.0,8.0,74,0.00,,---,0.00,VWS V12.07,2013-09-01 18:35:00,
2013-09-01 14:45:00,77.9,70.1,29.82,South,174,6.0,11.0,77,0.00,,---,0.00,VWS V12.07,2013-09-01 18:45:00,
2013-09-01 14:55:00,78.7,70.5,29.82,SSW,206,6.0,11.0,76,0.00,,---,0.00,VWS V12.07,2013-09-01 18:55:00,
2013-09-01 15:05:00,79.0,70.8,29.81,SSE,166,5.0,7.0,76,0.00,,---,0.00,VWS V12.07,2013-09-01 19:05:00,
2013-09-01 15:15:00,79.1,70.9,29.81,SSW,198,5.0,8.0,76,0.00,,---,0.00,VWS V12.07,2013-09-01 19:15:00,
2013-09-01 15:25:00,78.9,71.5,29.81,SSW,193,4.0,9.0,78,0.00,,---,0.00,VWS V12.07,2013-09-01 19:25:00,
2013-09-01 15:35:00,77.2,69.8,29.80,SSE,167,6.0,7.0,78,0.00,,---,0.00,VWS V12.07,2013-09-01 19:35:00,
2013-09-01 15:45:00,76.1,70.2,29.81,SW,221,6.0,8.0,82,0.00,,---,0.00,VWS V12.07,2013-09-01 19:45:00,
2013-09-01 15:55:00,75.4,70.2,29.81,SSW,193,7.0,9.0,84,0.00,,---,0.00,VWS V12.07,2013-09-01 19:55:00,
2013-09-01 16:05:00,74.7,70.6,29.81,SSW,207,5.0,8.0,87,0.00,,---,0.00,VWS V12.07,2013-09-01 20:05:00,
2013-09-01 16:15:00,74.4,70.3,29.80,South,173,1.0,8.0,87,0.00,,---,0.00,VWS V12.07,2013-09-01 20:15:00,
2013-09-01 16:25:00,74.0,70.6,29.80,SSW,207,5.0,7.0,89,0.01,,---,0.01,VWS V12.07,2013-09-01 20:25:00,
2013-09-01 16:45:00,72.7,70.6,29.82,WSW,246,4.0,7.0,93,0.02,,---,0.02,VWS V12.07,2013-09-01 20:45:00,
2013-09-01 16:55:00,72.3,70.8,29.82,SW,232,3.0,6.0,95,0.02,,---,0.02,VWS V12.07,2013-09-01 20:55:00,
2013-09-01 17:05:00,72.2,70.7,29.82,WSW,239,5.0,6.0,95,0.02,,---,0.02,VWS V12.07,2013-09-01 21:05:00,
2013-09-01 17:15:00,71.6,70.4,29.83,West,267,7.0,11.0,96,0.02,,---,0.02,VWS V12.07,2013-09-01 21:15:00,
2013-09-01 17:25:00,71.2,70.0,29.83,WSW,240,5.0,7.0,96,0.02,,---,0.02,VWS V12.07,2013-09-01 21:25:00,
2013-09-01 17:35:00,71.1,69.9,29.82,West,259,6.0,7.0,96,0.01,,---,0.02,VWS V12.07,2013-09-01 21:35:00,
2013-09-01 17:46:00,70.7,69.5,29.82,SSW,211,2.0,3.0,96,0.01,,---,0.02,VWS V12.07,2013-09-01 21:46:00,
2013-09-01 17:56:00,70.6,69.7,29.82,SW,228,4.0,5.0,97,0.00,,---,0.02,VWS V12.07,2013-09-01 21:56:00,
2013-09-01 18:07:00,70.6,70.0,29.81,SW,234,3.0,5.0,98,0.00,,---,0.02,VWS V12.07,2013-09-01 22:07:00,
2013-09-01 18:16:00,70.6,70.0,29.81,SW,217,0.0,1.0,98,0.01,,---,0.03,VWS V12.07,2013-09-01 22:16:00,
2013-09-01 18:26:00,70.8,69.9,29.81,SW,229,3.0,4.0,97,0.01,,---,0.03,VWS V12.07,2013-09-01 22:26:00,
2013-09-01 18:36:00,70.9,69.7,29.81,SW,220,3.0,3.0,96,0.01,,---,0.03,VWS V12.07,2013-09-01 22:36:00,
2013-09-01 18:46:00,70.7,69.5,29.81,SSW,213,4.0,4.0,96,0.01,,---,0.03,VWS V12.07,2013-09-01 22:46:00,
2013-09-01 18:56:00,70.5,69.6,29.81,West,269,3.0,5.0,97,0.01,,---,0.03,VWS V12.07,2013-09-01 22:56:00,
2013-09-01 19:06:00,70.5,69.6,29.82,West,273,1.0,2.0,97,0.01,,---,0.03,VWS V12.07,2013-09-01 23:06:00,
2013-09-01 19:16:00,70.4,69.5,29.82,West,273,1.0,2.0,97,0.01,,---,0.03,VWS V12.07,2013-09-01 23:16:00,
2013-09-01 19:26:00,69.9,69.0,29.82,SW,217,3.0,4.0,97,0.00,,---,0.03,VWS V12.07,2013-09-01 23:26:00,
2013-09-01 19:45:00,69.9,69.3,29.82,South,182,4.0,5.0,98,0.00,,---,0.03,VWS V12.07,2013-09-01 23:45:00,
2013-09-01 19:57:00,70.0,69.4,29.82,South,170,3.0,6.0,98,0.00,,---,0.03,VWS V12.07,2013-09-01 23:57:00,
2013-09-01 20:25:00,69.4,68.8,29.83,WSW,240,4.0,6.0,98,0.00,,---,0.03,VWS V12.07,2013-09-02 00:25:00,
2013-09-01 20:36:00,69.2,68.6,29.83,SW,227,3.0,5.0,98,0.00,,---,0.03,VWS V12.07,2013-09-02 00:36:00,
2013-09-01 20:41:00,69.2,68.9,29.83,South,191,4.0,5.0,99,0.00,,---,0.03,VWS V12.07,2013-09-02 00:41:00,
2013-09-01 20:56:00,69.8,69.5,29.83,SSW,204,5.0,6.0,99,0.00,,---,0.03,VWS V12.07,2013-09-02 00:56:00,
2013-09-01 21:06:00,69.9,69.6,29.82,SSW,208,4.0,7.0,99,0.00,,---,0.03,VWS V12.07,2013-09-02 01:06:00,
2013-09-01 21:16:00,69.7,69.1,29.82,SSW,206,5.0,5.0,98,0.00,,---,0.03,VWS V12.07,2013-09-02 01:16:00,
2013-09-01 21:26:00,70.0,69.7,29.82,SSW,207,4.0,6.0,99,0.00,,---,0.03,VWS V12.07,2013-09-02 01:26:00,
2013-09-01 21:36:00,70.1,69.8,29.82,South,183,4.0,7.0,99,0.00,,---,0.03,VWS V12.07,2013-09-02 01:36:00,
2013-09-01 21:46:00,70.1,69.8,29.83,SW,227,4.0,4.0,99,0.00,,---,0.03,VWS V12.07,2013-09-02 01:46:00,
2013-09-01 21:56:00,69.7,69.4,29.83,SSW,192,5.0,6.0,99,0.00,,---,0.03,VWS V12.07,2013-09-02 01:56:00,
2013-09-01 22:15:00,70.0,69.7,29.83,SW,215,6.0,9.0,99,0.00,,---,0.03,VWS V12.07,2013-09-02 02:15:00,
2013-09-01 22:25:00,70.0,69.7,29.83,South,184,3.0,7.0,99,0.00,,---,0.03,VWS V12.07,2013-09-02 02:25:00,
2013-09-01 22:35:00,69.9,69.6,29.83,South,184,6.0,8.0,99,0.00,,---,0.03,VWS V12.07,2013-09-02 02:35:00,
2013-09-01 22:45:00,69.9,69.6,29.83,South,185,5.0,8.0,99,0.00,,---,0.03,VWS V12.07,2013-09-02 02:45:00,
2013-09-01 22:57:00,69.8,69.5,29.83,SSW,200,7.0,8.0,99,0.00,,---,0.03,VWS V12.07,2013-09-02 02:57:00,
2013-09-01 23:05:00,69.8,69.5,29.83,SSW,196,5.0,8.0,99,0.00,,---,0.03,VWS V12.07,2013-09-02 03:05:00,
2013-09-01 23:15:00,69.8,69.5,29.83,SSW,212,4.0,8.0,99,0.00,,---,0.03,VWS V12.07,2013-09-02 03:15:00,
2013-09-01 23:25:00,69.8,69.5,29.83,SSW,192,5.0,6.0,99,0.00,,---,0.03,VWS V12.07,2013-09-02 03:25:00,
2013-09-01 23:35:00,69.9,69.6,29.83,SSW,202,4.0,6.0,99,0.00,,---,0.03,VWS V12.07,2013-09-02 03:35:00,
2013-09-01 23:46:00,69.8,69.5,29.82,SSW,203,4.0,6.0,99,0.00,,---,0.03,VWS V12.07,2013-09-02 03:46:00,
2013-09-01 23:56:00,69.8,69.5,29.82,South,173,4.0,7.0,99,0.00,,---,0.03,VWS V12.07,2013-09-02 03:56:00,